Regional Weather Roundup
Issued by NWS

Home | Current Version | Previous Version | Text Only | Print | Product List | Glossary On
Versions: 1 2 3 4 5 6 7 8 9 10 11 12 13 14 15 16 17 18 19 20 21 22 23 24 25 26 27 28 29 30 31 32 33 34 35 36 37 38 39 40 41 42 43 44 45 46 47 48 49 50
000
ASUS45 KBOI 281410
RWRID

IDAHO REGIONAL WEATHER ROUNDUP
NATIONAL WEATHER SERVICE BOISE ID
800 AM MDT THU MAY 28 2015

NOTE: "FAIR" INDICATES FEW OR NO CLOUDS BELOW 12000 FEET
WITH NO SIGNIFICANT WEATHER AND/OR OBSTRUCTIONS TO VISIBILITY

IDZ012-014-281500-
SOUTHWEST IDAHO


CITY           SKY/WX    TMP DP  RH WIND       PRES   REMARKS
BOISE          SUNNY     55  45  68 S5        30.08R
CALDWELL       SUNNY     55  43  62 NW6       30.10R
MOUNTAIN HOME  SUNNY     53  43  70 W6        30.08R
$$

IDZ016-017-281500-
SOUTHCENTRAL IDAHO


CITY           SKY/WX    TMP DP  RH WIND       PRES   REMARKS
BURLEY         SUNNY     52  46  80 CALM      30.09R
JEROME         SUNNY     52  45  77 CALM      30.10R
TWIN FALLS     SUNNY     57  45  64 S9        30.08R
$$

IDZ019>023-281500-
SOUTHEAST IDAHO


CITY           SKY/WX    TMP DP  RH WIND       PRES   REMARKS
IDAHO FALLS    CLOUDY    49  48  97 NW6       30.12R
POCATELLO      PTSUNNY   50  50 100 W6        30.11R
REXBURG        LGT RAIN  48  46  93 E5        30.13R
$$

IDZ006-010-011-018-031-032-281500-
CENTRAL IDAHO MOUNTAINS


CITY           SKY/WX    TMP DP  RH WIND       PRES   REMARKS
MCCALL         SUNNY     42  39  89 CALM      30.13R
HAILEY         MOSUNNY   45  37  76 NW9       30.14R
STANLEY          N/A     38  36  92 CALM      30.20R
SALMON         CLOUDY    50  46  87 CALM      30.12R
CHALLIS        MOSUNNY   47  40  76 S3        30.14R
$$

IDZ002-004-006-007-026-281500-
NORTHERN IDAHO


CITY           SKY/WX    TMP DP  RH WIND       PRES   REMARKS
LEWISTON       SUNNY     57  51  80 E5        30.09R
LOWELL           N/A     52  48  86 CALM      30.15R
COEUR D`ALENE  PTSUNNY   57  52  82 S9        30.07R
MULLAN PASS    CLOUDY    45  43  93 VRB5      30.16R
$$



USA.gov is the U.S. government's official web portal to all federal, state and local government web resources and services.